Year,Month,Day,Hour,Minute,Value (Times are PST for barometer in hPa)
2019,04,22,00,00,993.80
2019,04,22,00,01,993.87
2019,04,22,00,02,993.80
2019,04,22,00,03,993.87
2019,04,22,00,04,993.87
2019,04,22,00,05,993.91
2019,04,22,00,06,993.77
2019,04,22,00,07,993.84
2019,04,22,00,08,993.74
2019,04,22,00,09,993.80
2019,04,22,00,10,993.84
2019,04,22,00,11,993.84
2019,04,22,00,12,993.80
2019,04,22,00,13,993.80
2019,04,22,00,14,993.74
2019,04,22,00,15,993.74
2019,04,22,00,16,993.80
2019,04,22,00,17,993.80
2019,04,22,00,18,993.84
2019,04,22,00,19,993.77
2019,04,22,00,20,993.77
2019,04,22,00,21,993.77
2019,04,22,00,22,993.80
2019,04,22,00,23,993.87
2019,04,22,00,24,993.77
2019,04,22,00,25,993.84
2019,04,22,00,26,993.84
2019,04,22,00,27,993.80
2019,04,22,00,28,993.74
2019,04,22,00,29,993.80
2019,04,22,00,30,993.80
2019,04,22,00,31,993.77
2019,04,22,00,32,993.80
2019,04,22,00,33,993.80
2019,04,22,00,34,993.70
2019,04,22,00,35,993.80
2019,04,22,00,36,993.80
2019,04,22,00,37,993.74
2019,04,22,00,38,993.80
2019,04,22,00,39,993.77
2019,04,22,00,40,993.80
2019,04,22,00,41,993.74
2019,04,22,00,42,993.70
2019,04,22,00,43,993.80
2019,04,22,00,44,993.87
2019,04,22,00,45,993.74
2019,04,22,00,46,993.70
2019,04,22,00,47,993.77
2019,04,22,00,48,993.70
2019,04,22,00,49,993.77
2019,04,22,00,50,993.74
2019,04,22,00,51,993.74
2019,04,22,00,52,993.74
2019,04,22,00,53,993.80
2019,04,22,00,54,993.74
2019,04,22,00,55,993.67
2019,04,22,00,56,993.70
2019,04,22,00,57,993.74
2019,04,22,00,58,993.70
2019,04,22,00,59,993.70
2019,04,22,01,00,993.70
2019,04,22,01,01,993.63
2019,04,22,01,02,993.63
2019,04,22,01,03,993.73
2019,04,22,01,04,993.60
2019,04,22,01,05,993.67
2019,04,22,01,06,993.60
2019,04,22,01,07,993.53
2019,04,22,01,08,993.53
2019,04,22,01,09,993.53
2019,04,22,01,10,993.50
2019,04,22,01,11,993.60
2019,04,22,01,12,993.53
2019,04,22,01,13,993.47
2019,04,22,01,14,993.53
2019,04,22,01,15,993.47
2019,04,22,01,16,993.50
2019,04,22,01,17,993.43
2019,04,22,01,18,993.57
2019,04,22,01,19,993.47
2019,04,22,01,20,993.43
2019,04,22,01,21,993.43
2019,04,22,01,22,993.43
2019,04,22,01,23,993.47
2019,04,22,01,24,993.47
2019,04,22,01,25,993.47
2019,04,22,01,26,993.43
2019,04,22,01,27,993.50
2019,04,22,01,28,993.47
2019,04,22,01,29,993.47
2019,04,22,01,30,993.40
2019,04,22,01,31,993.36
2019,04,22,01,32,993.36
2019,04,22,01,33,993.47
2019,04,22,01,34,993.47
2019,04,22,01,35,993.60
2019,04,22,01,36,993.43
2019,04,22,01,37,993.50
2019,04,22,01,38,993.60
2019,04,22,01,39,993.53
2019,04,22,01,40,993.60
2019,04,22,01,41,993.60
2019,04,22,01,42,993.70
2019,04,22,01,43,993.57
2019,04,22,01,44,993.60
2019,04,22,01,45,993.57
2019,04,22,01,46,993.57
2019,04,22,01,47,993.50
2019,04,22,01,48,993.57
2019,04,22,01,49,993.53
2019,04,22,01,50,993.63
2019,04,22,01,51,993.63
2019,04,22,01,52,993.57
2019,04,22,01,53,993.60
2019,04,22,01,54,993.57
2019,04,22,01,55,993.60
2019,04,22,01,56,993.63
2019,04,22,01,57,993.60
2019,04,22,01,58,993.53
2019,04,22,01,59,993.57
2019,04,22,02,00,993.57
2019,04,22,02,01,993.53
2019,04,22,02,02,993.57
2019,04,22,02,03,993.57
2019,04,22,02,04,993.53
2019,04,22,02,05,993.57
2019,04,22,02,06,993.60
2019,04,22,02,07,993.57
2019,04,22,02,08,993.53
2019,04,22,02,09,993.50
2019,04,22,02,10,993.43
2019,04,22,02,11,993.50
2019,04,22,02,12,993.50
2019,04,22,02,13,993.50
2019,04,22,02,14,993.50
2019,04,22,02,15,993.53
2019,04,22,02,16,993.36
2019,04,22,02,17,993.43
2019,04,22,02,18,993.43
2019,04,22,02,19,993.43
2019,04,22,02,20,993.36
2019,04,22,02,21,993.36
2019,04,22,02,22,993.33
2019,04,22,02,23,993.40
2019,04,22,02,24,993.36
2019,04,22,02,25,993.36
2019,04,22,02,26,993.33
2019,04,22,02,27,993.40
2019,04,22,02,28,993.33
2019,04,22,02,29,993.33
2019,04,22,02,30,993.36
2019,04,22,02,31,993.33
2019,04,22,02,32,993.26
2019,04,22,02,33,993.33
2019,04,22,02,34,993.26
2019,04,22,02,35,993.30
2019,04,22,02,36,993.26
2019,04,22,02,37,993.26
2019,04,22,02,38,993.19
2019,04,22,02,39,993.19
2019,04,22,02,40,993.23
2019,04,22,02,41,993.26
2019,04,22,02,42,993.23
2019,04,22,02,43,993.26
2019,04,22,02,44,993.13
2019,04,22,02,45,993.13
2019,04,22,02,46,993.16
2019,04,22,02,47,993.09
2019,04,22,02,48,993.13
2019,04,22,02,49,993.16
2019,04,22,02,50,993.13
2019,04,22,02,51,993.16
2019,04,22,02,52,993.13
2019,04,22,02,53,993.09
2019,04,22,02,54,993.03
2019,04,22,02,55,993.03
2019,04,22,02,56,993.03
2019,04,22,02,57,993.03
2019,04,22,02,58,993.13
2019,04,22,02,59,993.03
2019,04,22,03,00,993.06
2019,04,22,03,01,992.96
2019,04,22,03,02,992.96
2019,04,22,03,03,992.99
2019,04,22,03,04,992.99
2019,04,22,03,05,992.89
2019,04,22,03,06,992.96
2019,04,22,03,07,992.96
2019,04,22,03,08,992.92
2019,04,22,03,09,992.92
2019,04,22,03,10,992.86
2019,04,22,03,11,992.89
2019,04,22,03,12,992.89
2019,04,22,03,13,992.86
2019,04,22,03,14,992.89
2019,04,22,03,15,992.82
2019,04,22,03,16,992.86
2019,04,22,03,17,992.86
2019,04,22,03,18,992.82
2019,04,22,03,19,992.86
2019,04,22,03,20,992.82
2019,04,22,03,21,992.75
2019,04,22,03,22,992.82
2019,04,22,03,23,992.75
2019,04,22,03,24,992.86
2019,04,22,03,25,992.82
2019,04,22,03,26,992.82
2019,04,22,03,27,992.82
2019,04,22,03,28,992.79
2019,04,22,03,29,992.82
2019,04,22,03,30,992.79
2019,04,22,03,31,992.75
2019,04,22,03,32,992.79
2019,04,22,03,33,992.69
2019,04,22,03,34,992.75
2019,04,22,03,35,992.62
2019,04,22,03,36,992.69
2019,04,22,03,37,992.69
2019,04,22,03,38,992.69
2019,04,22,03,39,992.65
2019,04,22,03,40,992.55
2019,04,22,03,41,992.65
2019,04,22,03,42,992.69
2019,04,22,03,43,992.62
2019,04,22,03,44,992.62
2019,04,22,03,45,992.55
2019,04,22,03,46,992.58
2019,04,22,03,47,992.58
2019,04,22,03,48,992.62
2019,04,22,03,49,992.58
2019,04,22,03,50,992.62
2019,04,22,03,51,992.58
2019,04,22,03,52,992.52
2019,04,22,03,53,992.52
2019,04,22,03,54,992.55
2019,04,22,03,55,992.52
2019,04,22,03,56,992.52
2019,04,22,03,57,992.52
2019,04,22,03,58,992.45
2019,04,22,03,59,992.45
2019,04,22,04,00,992.48
2019,04,22,04,01,992.48
2019,04,22,04,02,992.45
2019,04,22,04,03,992.42
2019,04,22,04,04,992.45
2019,04,22,04,05,992.45
2019,04,22,04,06,992.48
2019,04,22,04,07,992.42
2019,04,22,04,08,992.45
2019,04,22,04,09,992.35
2019,04,22,04,10,992.38
2019,04,22,04,11,992.38
2019,04,22,04,12,992.38
2019,04,22,04,13,992.38
2019,04,22,04,14,992.38
2019,04,22,04,15,992.31
2019,04,22,04,16,992.31
2019,04,22,04,17,992.38
2019,04,22,04,18,992.35
2019,04,22,04,19,992.35
2019,04,22,04,20,992.38
2019,04,22,04,21,992.31
2019,04,22,04,22,992.35
2019,04,22,04,23,992.31
2019,04,22,04,24,992.31
2019,04,22,04,25,992.25
2019,04,22,04,26,992.28
2019,04,22,04,27,992.28
2019,04,22,04,28,992.31
2019,04,22,04,29,992.31
2019,04,22,04,30,992.28
2019,04,22,04,31,992.28
2019,04,22,04,32,992.25
2019,04,22,04,33,992.31
2019,04,22,04,34,992.28
2019,04,22,04,35,992.28
2019,04,22,04,36,992.28
2019,04,22,04,37,992.25
2019,04,22,04,38,992.25
2019,04,22,04,39,992.28
2019,04,22,04,40,992.25
2019,04,22,04,41,992.31
2019,04,22,04,42,992.28
2019,04,22,04,43,992.25
2019,04,22,04,44,992.18
2019,04,22,04,45,992.18
2019,04,22,04,46,992.25
2019,04,22,04,47,992.21
2019,04,22,04,48,992.21
2019,04,22,04,49,992.21
2019,04,22,04,50,992.21
2019,04,22,04,51,992.21
2019,04,22,04,52,992.21
2019,04,22,04,53,992.21
2019,04,22,04,54,992.18
2019,04,22,04,55,992.21
2019,04,22,04,56,992.18
2019,04,22,04,57,992.21
2019,04,22,04,58,992.21
2019,04,22,04,59,992.21
2019,04,22,05,00,992.14
2019,04,22,05,01,992.14
2019,04,22,05,02,992.14
2019,04,22,05,03,992.14
2019,04,22,05,04,992.18
2019,04,22,05,05,992.14
2019,04,22,05,06,992.14
2019,04,22,05,07,992.11
2019,04,22,05,08,992.11
2019,04,22,05,09,992.11
2019,04,22,05,10,992.11
2019,04,22,05,11,992.21
2019,04,22,05,12,992.18
2019,04,22,05,13,992.14
2019,04,22,05,14,992.11
2019,04,22,05,15,992.14
2019,04,22,05,16,992.11
2019,04,22,05,17,992.11
2019,04,22,05,18,992.08
2019,04,22,05,19,992.11
2019,04,22,05,20,992.18
2019,04,22,05,21,992.11
2019,04,22,05,22,992.11
2019,04,22,05,23,992.08
2019,04,22,05,24,992.08
2019,04,22,05,25,992.08
2019,04,22,05,26,992.11
2019,04,22,05,27,992.08
2019,04,22,05,28,992.04
2019,04,22,05,29,992.01
2019,04,22,05,30,992.04
2019,04,22,05,31,992.01
2019,04,22,05,32,992.04
2019,04,22,05,33,992.08
2019,04,22,05,34,992.04
2019,04,22,05,35,992.08
2019,04,22,05,36,992.01
2019,04,22,05,37,992.04
2019,04,22,05,38,992.01
2019,04,22,05,39,992.01
2019,04,22,05,40,991.98
2019,04,22,05,41,992.04
2019,04,22,05,42,992.04
2019,04,22,05,43,992.01
2019,04,22,05,44,992.04
2019,04,22,05,45,992.08
2019,04,22,05,46,992.04
2019,04,22,05,47,992.04
2019,04,22,05,48,992.04
2019,04,22,05,49,992.04
2019,04,22,05,50,992.01
2019,04,22,05,51,992.01
2019,04,22,05,52,991.94
2019,04,22,05,53,991.98
2019,04,22,05,54,991.94
2019,04,22,05,55,992.01
2019,04,22,05,56,991.98
2019,04,22,05,57,991.94
2019,04,22,05,58,991.87
2019,04,22,05,59,991.91
2019,04,22,06,00,991.94
2019,04,22,06,01,991.87
2019,04,22,06,02,991.91
2019,04,22,06,03,991.87
2019,04,22,06,04,991.91
2019,04,22,06,05,991.91
2019,04,22,06,06,991.84
2019,04,22,06,07,991.84
2019,04,22,06,08,991.84
2019,04,22,06,09,991.81
2019,04,22,06,10,991.77
2019,04,22,06,11,991.84
2019,04,22,06,12,991.84
2019,04,22,06,13,991.81
2019,04,22,06,14,991.81
2019,04,22,06,15,991.74
2019,04,22,06,16,991.74
2019,04,22,06,17,991.74
2019,04,22,06,18,991.70
2019,04,22,06,19,991.67
2019,04,22,06,20,991.67
2019,04,22,06,21,991.67
2019,04,22,06,22,991.67
2019,04,22,06,23,991.64
2019,04,22,06,24,991.67
2019,04,22,06,25,991.70
2019,04,22,06,26,991.77
2019,04,22,06,27,991.70
2019,04,22,06,28,991.64
2019,04,22,06,29,991.67
2019,04,22,06,30,991.67
2019,04,22,06,31,991.67
2019,04,22,06,32,991.67
2019,04,22,06,33,991.67
2019,04,22,06,34,991.70
2019,04,22,06,35,991.67
2019,04,22,06,36,991.67
2019,04,22,06,37,991.67
2019,04,22,06,38,991.67
2019,04,22,06,39,991.64
2019,04,22,06,40,991.60
2019,04,22,06,41,991.60
2019,04,22,06,42,991.60
2019,04,22,06,43,991.64
2019,04,22,06,44,991.60
2019,04,22,06,45,991.57
2019,04,22,06,46,991.60
2019,04,22,06,47,991.53
2019,04,22,06,48,991.53
2019,04,22,06,49,991.57
2019,04,22,06,50,991.50
2019,04,22,06,51,991.53
2019,04,22,06,52,991.50
2019,04,22,06,53,991.53
2019,04,22,06,54,991.50
2019,04,22,06,55,991.50
2019,04,22,06,56,991.53
2019,04,22,06,57,991.41
2019,04,22,06,58,991.47
2019,04,22,06,59,991.47
2019,04,22,07,00,991.43
2019,04,22,07,01,991.47
2019,04,22,07,02,991.43
2019,04,22,07,03,991.40
2019,04,22,07,04,991.40
2019,04,22,07,05,991.37
2019,04,22,07,06,991.30
2019,04,22,07,07,991.30
2019,04,22,07,08,991.33
2019,04,22,07,09,991.30
2019,04,22,07,10,991.30
2019,04,22,07,11,991.30
2019,04,22,07,12,991.26
2019,04,22,07,13,991.26
2019,04,22,07,14,991.26
2019,04,22,07,15,991.23
2019,04,22,07,16,991.23
2019,04,22,07,17,991.20
2019,04,22,07,18,991.23
2019,04,22,07,19,991.20
2019,04,22,07,20,991.16
2019,04,22,07,21,991.16
2019,04,22,07,22,991.13
2019,04,22,07,23,991.09
2019,04,22,07,24,991.13
2019,04,22,07,25,991.13
2019,04,22,07,26,991.13
2019,04,22,07,27,991.09
2019,04,22,07,28,991.03
2019,04,22,07,29,991.06
2019,04,22,07,30,991.03
2019,04,22,07,31,991.03
2019,04,22,07,32,990.96
2019,04,22,07,33,990.93
2019,04,22,07,34,990.89
2019,04,22,07,35,990.86
2019,04,22,07,36,990.86
2019,04,22,07,37,990.86
2019,04,22,07,38,990.79
2019,04,22,07,39,990.76
2019,04,22,07,40,990.79
2019,04,22,07,41,990.79
2019,04,22,07,42,990.79
2019,04,22,07,43,990.82
2019,04,22,07,44,990.76
2019,04,22,07,45,990.76
2019,04,22,07,46,990.76
2019,04,22,07,47,990.69
2019,04,22,07,48,990.76
2019,04,22,07,49,990.72
2019,04,22,07,50,990.69
2019,04,22,07,51,990.65
2019,04,22,07,52,990.65
2019,04,22,07,53,990.65
2019,04,22,07,54,990.62
2019,04,22,07,55,990.65
2019,04,22,07,56,990.62
2019,04,22,07,57,990.65
2019,04,22,07,58,990.65
2019,04,22,07,59,990.59
2019,04,22,08,00,990.62
2019,04,22,08,01,990.17
2019,04,22,08,02,990.15
2019,04,22,08,03,990.51
2019,04,22,08,04,990.52
2019,04,22,08,05,990.52
2019,04,22,08,06,990.45
2019,04,22,08,07,990.52
2019,04,22,08,08,990.55
2019,04,22,08,09,990.55
2019,04,22,08,10,990.55
2019,04,22,08,11,990.55
2019,04,22,08,12,990.49
2019,04,22,08,13,990.49
2019,04,22,08,14,990.55
2019,04,22,08,15,990.55
2019,04,22,08,16,990.52
2019,04,22,08,17,990.52
2019,04,22,08,18,990.49
2019,04,22,08,19,990.52
2019,04,22,08,20,990.52
2019,04,22,08,21,990.49
2019,04,22,08,22,990.52
2019,04,22,08,23,990.49
2019,04,22,08,24,990.49
2019,04,22,08,25,990.42
2019,04,22,08,26,990.45
2019,04,22,08,27,990.42
2019,04,22,08,28,990.45
2019,04,22,08,29,990.45
2019,04,22,08,30,990.45
2019,04,22,08,31,990.35
2019,04,22,08,32,990.45
2019,04,22,08,33,990.45
2019,04,22,08,34,990.45
2019,04,22,08,35,990.42
2019,04,22,08,36,990.38
2019,04,22,08,37,990.35
2019,04,22,08,38,990.32
2019,04,22,08,39,990.32
2019,04,22,08,40,990.28
2019,04,22,08,41,990.28
2019,04,22,08,42,990.28
2019,04,22,08,43,990.28
2019,04,22,08,44,990.28
2019,04,22,08,45,990.25
2019,04,22,08,46,990.15
2019,04,22,08,47,990.15
2019,04,22,08,48,990.18
2019,04,22,08,49,990.15
2019,04,22,08,50,990.18
2019,04,22,08,51,990.18
2019,04,22,08,52,990.15
2019,04,22,08,53,990.18
2019,04,22,08,54,990.18
2019,04,22,08,55,990.08
2019,04,22,08,56,990.08
2019,04,22,08,57,990.08
2019,04,22,08,58,990.08
2019,04,22,08,59,990.11
2019,04,22,09,00,990.08
2019,04,22,09,01,990.08
2019,04,22,09,02,990.04
2019,04,22,09,03,990.01
2019,04,22,09,04,990.08
2019,04,22,09,05,990.08
2019,04,22,09,06,990.04
2019,04,22,09,07,990.08
2019,04,22,09,08,990.01
2019,04,22,09,09,990.04
2019,04,22,09,10,990.01
2019,04,22,09,11,990.08
2019,04,22,09,12,990.04
2019,04,22,09,13,989.98
2019,04,22,09,14,990.01
2019,04,22,09,15,989.91
2019,04,22,09,16,989.91
2019,04,22,09,17,989.91
2019,04,22,09,18,989.94
2019,04,22,09,19,989.94
2019,04,22,09,20,989.88
2019,04,22,09,21,989.91
2019,04,22,09,22,989.94
2019,04,22,09,23,989.94
2019,04,22,09,24,989.88
2019,04,22,09,25,989.91
2019,04,22,09,26,989.88
2019,04,22,09,27,989.88
2019,04,22,09,28,989.84
2019,04,22,09,29,989.91
2019,04,22,09,30,989.77
2019,04,22,09,31,989.77
2019,04,22,09,32,989.71
2019,04,22,09,33,989.74
2019,04,22,09,34,989.74
2019,04,22,09,35,989.74
2019,04,22,09,36,989.67
2019,04,22,09,37,989.64
2019,04,22,09,38,989.67
2019,04,22,09,39,989.67
2019,04,22,09,40,989.67
2019,04,22,09,41,989.57
2019,04,22,09,42,989.64
2019,04,22,09,43,989.60
2019,04,22,09,44,989.60
2019,04,22,09,45,989.60
2019,04,22,09,46,989.57
2019,04,22,09,47,989.57
2019,04,22,09,48,989.54
2019,04,22,09,49,989.57
2019,04,22,09,50,989.54
2019,04,22,09,51,989.54
2019,04,22,09,52,989.50
2019,04,22,09,53,989.50
2019,04,22,09,54,989.47
2019,04,22,09,55,989.47
2019,04,22,09,56,989.44
2019,04,22,09,57,989.40
2019,04,22,09,58,989.40
2019,04,22,09,59,989.44
2019,04,22,10,00,989.37
2019,04,22,10,01,989.37
2019,04,22,10,02,989.33
2019,04,22,10,03,989.27
2019,04,22,10,04,989.33
2019,04,22,10,05,989.27
2019,04,22,10,06,989.27
2019,04,22,10,07,989.23
2019,04,22,10,08,989.20
2019,04,22,10,09,989.16
2019,04,22,10,10,989.16
2019,04,22,10,11,989.23
2019,04,22,10,12,989.23
2019,04,22,10,13,989.16
2019,04,22,10,14,989.16
2019,04,22,10,15,989.20
2019,04,22,10,16,989.16
2019,04,22,10,17,989.13
2019,04,22,10,18,989.10
2019,04,22,10,19,989.06
2019,04,22,10,20,989.13
2019,04,22,10,21,989.03
2019,04,22,10,22,989.03
2019,04,22,10,23,989.06
2019,04,22,10,24,989.00
2019,04,22,10,25,989.00
2019,04,22,10,26,988.93
2019,04,22,10,27,988.96
2019,04,22,10,28,988.96
2019,04,22,10,29,988.93
2019,04,22,10,30,989.00
2019,04,22,10,31,988.89
2019,04,22,10,32,988.93
2019,04,22,10,33,988.93
2019,04,22,10,34,988.93
2019,04,22,10,35,988.96
2019,04,22,10,36,988.89
2019,04,22,10,37,988.86
2019,04,22,10,38,988.83
2019,04,22,10,39,988.89
2019,04,22,10,40,988.86
2019,04,22,10,41,988.86
2019,04,22,10,42,988.89
2019,04,22,10,43,988.86
2019,04,22,10,44,988.83
2019,04,22,10,45,988.86
2019,04,22,10,46,988.79
2019,04,22,10,47,988.76
2019,04,22,10,48,988.83
2019,04,22,10,49,988.72
2019,04,22,10,50,988.79
2019,04,22,10,51,988.72
2019,04,22,10,52,988.72
2019,04,22,10,53,988.69
2019,04,22,10,54,988.76
2019,04,22,10,55,988.69
2019,04,22,10,56,988.72
2019,04,22,10,57,988.72
2019,04,22,10,58,988.69
2019,04,22,10,59,988.72
2019,04,22,11,00,988.69
2019,04,22,11,01,988.69
2019,04,22,11,02,988.66
2019,04,22,11,03,988.69
2019,04,22,11,04,988.66
2019,04,22,11,05,988.62
2019,04,22,11,06,988.62
2019,04,22,11,07,988.59
2019,04,22,11,08,988.55
2019,04,22,11,09,988.52
2019,04,22,11,10,988.52
2019,04,22,11,11,988.49
2019,04,22,11,12,988.49
2019,04,22,11,13,988.42
2019,04,22,11,14,988.45
2019,04,22,11,15,988.42
2019,04,22,11,16,988.42
2019,04,22,11,17,988.35
2019,04,22,11,18,988.39
2019,04,22,11,19,988.35
2019,04,22,11,20,988.48
2019,04,22,11,21,988.42
2019,04,22,11,22,988.52
2019,04,22,11,23,988.42
2019,04,22,11,24,988.39
2019,04,22,11,25,988.42
2019,04,22,11,26,988.42
2019,04,22,11,27,988.42
2019,04,22,11,28,988.39
2019,04,22,11,29,988.35
2019,04,22,11,30,988.35
2019,04,22,11,31,988.39
2019,04,22,11,32,988.42
2019,04,22,11,33,988.42
2019,04,22,11,34,988.39
2019,04,22,11,35,988.39
2019,04,22,11,36,988.32
2019,04,22,11,37,988.42
2019,04,22,11,38,988.32
2019,04,22,11,39,988.32
2019,04,22,11,40,988.32
2019,04,22,11,41,988.28
2019,04,22,11,42,988.35
2019,04,22,11,43,988.28
2019,04,22,11,44,988.32
2019,04,22,11,45,988.28
2019,04,22,11,46,988.32
2019,04,22,11,47,988.28
2019,04,22,11,48,988.32
2019,04,22,11,49,988.22
2019,04,22,11,50,988.22
2019,04,22,11,51,988.28
2019,04,22,11,52,988.28
2019,04,22,11,53,988.18
2019,04,22,11,54,988.28
2019,04,22,11,55,988.22
2019,04,22,11,56,988.22
2019,04,22,11,57,988.22
2019,04,22,11,58,988.25
2019,04,22,11,59,988.28
2019,04,22,12,00,988.25
2019,04,22,12,01,988.32
2019,04,22,12,02,988.32
2019,04,22,12,03,988.35
2019,04,22,12,04,988.39
2019,04,22,12,05,988.25
2019,04,22,12,06,988.28
2019,04,22,12,07,988.28
2019,04,22,12,08,988.25
2019,04,22,12,09,988.25
2019,04,22,12,10,988.25
2019,04,22,12,11,988.22
2019,04,22,12,12,988.34
2019,04,22,12,13,988.25
2019,04,22,12,14,988.25
2019,04,22,12,15,988.32
2019,04,22,12,16,988.35
2019,04,22,12,17,988.32
2019,04,22,12,18,988.32
2019,04,22,12,19,988.16
2019,04,22,12,20,988.15
2019,04,22,12,21,988.18
2019,04,22,12,22,988.11
2019,04,22,12,23,988.11
2019,04,22,12,24,988.18
2019,04,22,12,25,988.11
2019,04,22,12,26,988.11
2019,04,22,12,27,988.15
2019,04,22,12,28,988.11
2019,04,22,12,29,988.08
2019,04,22,12,30,988.08
2019,04,22,12,31,988.08
2019,04,22,12,32,988.11
2019,04,22,12,33,988.11
2019,04,22,12,34,988.11
2019,04,22,12,35,988.15
2019,04,22,12,36,988.11
2019,04,22,12,37,988.18
2019,04,22,12,38,988.22
2019,04,22,12,39,988.11
2019,04,22,12,40,988.11
2019,04,22,12,41,988.15
2019,04,22,12,42,988.18
2019,04,22,12,43,988.02
2019,04,22,12,44,988.18
2019,04,22,12,45,988.11
2019,04,22,12,46,988.11
2019,04,22,12,47,988.05
2019,04,22,12,48,988.05
2019,04,22,12,49,988.08
2019,04,22,12,50,988.05
2019,04,22,12,51,987.98
2019,04,22,12,52,988.08
2019,04,22,12,53,988.01
2019,04,22,12,54,987.98
2019,04,22,12,55,987.98
2019,04,22,12,56,987.95
2019,04,22,12,57,987.91
2019,04,22,12,58,987.98
2019,04,22,12,59,987.84
2019,04,22,13,00,987.84
2019,04,22,13,01,987.84
2019,04,22,13,02,987.78
2019,04,22,13,03,987.71
2019,04,22,13,04,987.71
2019,04,22,13,05,987.64
2019,04,22,13,06,987.64
2019,04,22,13,07,987.64
2019,04,22,13,08,987.57
2019,04,22,13,09,987.61
2019,04,22,13,10,987.57
2019,04,22,13,11,987.57
2019,04,22,13,12,987.57
2019,04,22,13,13,987.54
2019,04,22,13,14,987.61
2019,04,22,13,15,987.57
2019,04,22,13,16,987.47
2019,04,22,13,17,987.44
2019,04,22,13,18,987.44
2019,04,22,13,19,987.44
2019,04,22,13,20,987.47
2019,04,22,13,21,987.44
2019,04,22,13,22,987.40
2019,04,22,13,23,987.34
2019,04,22,13,24,987.30
2019,04,22,13,25,987.27
2019,04,22,13,26,987.27
2019,04,22,13,27,987.20
2019,04,22,13,28,987.20
2019,04,22,13,29,987.13
2019,04,22,13,30,987.20
2019,04,22,13,31,987.17
2019,04,22,13,32,987.13
2019,04,22,13,33,987.06
2019,04,22,13,34,987.06
2019,04,22,13,35,987.10
2019,04,22,13,36,987.03
2019,04,22,13,37,987.10
2019,04,22,13,38,987.00
2019,04,22,13,39,987.00
2019,04,22,13,40,987.03
2019,04,22,13,41,987.03
2019,04,22,13,42,987.03
2019,04,22,13,43,987.03
2019,04,22,13,44,987.06
2019,04,22,13,45,987.03
2019,04,22,13,46,986.96
2019,04,22,13,47,986.93
2019,04,22,13,48,986.93
2019,04,22,13,49,986.86
2019,04,22,13,50,986.93
2019,04,22,13,51,986.77
2019,04,22,13,52,986.73
2019,04,22,13,53,986.79
2019,04,22,13,54,986.76
2019,04,22,13,55,986.76
2019,04,22,13,56,986.69
2019,04,22,13,57,986.62
2019,04,22,13,58,986.56
2019,04,22,13,59,986.56
2019,04,22,14,00,986.52
2019,04,22,14,01,986.52
2019,04,22,14,02,986.42
2019,04,22,14,03,986.42
2019,04,22,14,04,986.32
2019,04,22,14,05,986.35
2019,04,22,14,06,986.32
2019,04,22,14,07,986.32
2019,04,22,14,08,986.35
2019,04,22,14,09,986.25
2019,04,22,14,10,986.25
2019,04,22,14,11,986.12
2019,04,22,14,12,986.18
2019,04,22,14,13,986.15
2019,04,22,14,14,985.99
2019,04,22,14,15,986.05
2019,04,22,14,16,986.05
2019,04,22,14,17,986.12
2019,04,22,14,18,986.12
2019,04,22,14,19,986.08
2019,04,22,14,20,985.91
2019,04,22,14,21,985.98
2019,04,22,14,22,986.02
2019,04,22,14,23,985.91
2019,04,22,14,24,985.95
2019,04,22,14,25,985.91
2019,04,22,14,26,985.98
2019,04,22,14,27,986.05
2019,04,22,14,28,986.05
2019,04,22,14,29,986.17
2019,04,22,14,30,986.02
2019,04,22,14,31,985.98
2019,04,22,14,32,985.98
2019,04,22,14,33,986.02
2019,04,22,14,34,985.88
2019,04,22,14,35,985.91
2019,04,22,14,36,985.85
2019,04,22,14,37,985.81
2019,04,22,14,38,985.78
2019,04,22,14,39,985.78
2019,04,22,14,40,985.74
2019,04,22,14,41,985.78
2019,04,22,14,42,985.88
2019,04,22,14,43,985.85
2019,04,22,14,44,985.88
2019,04,22,14,45,985.98
2019,04,22,14,46,985.91
2019,04,22,14,47,985.88
2019,04,22,14,48,985.95
2019,04,22,14,49,985.88
2019,04,22,14,50,985.88
2019,04,22,14,51,985.85
2019,04,22,14,52,985.78
2019,04,22,14,53,985.71
2019,04,22,14,54,985.64
2019,04,22,14,55,985.64
2019,04,22,14,56,985.64
2019,04,22,14,57,985.57
2019,04,22,14,58,985.61
2019,04,22,14,59,985.61
2019,04,22,15,00,985.57
2019,04,22,15,01,985.57
2019,04,22,15,02,985.54
2019,04,22,15,03,985.54
2019,04,22,15,04,985.61
2019,04,22,15,05,985.61
2019,04,22,15,06,985.61
2019,04,22,15,07,985.61
2019,04,22,15,08,985.57
2019,04,22,15,09,985.54
2019,04,22,15,10,985.57
2019,04,22,15,11,985.71
2019,04,22,15,12,985.74
2019,04,22,15,13,985.61
2019,04,22,15,14,985.57
2019,04,22,15,15,985.51
2019,04,22,15,16,985.51
2019,04,22,15,17,985.51
2019,04,22,15,18,985.47
2019,04,22,15,19,985.44
2019,04,22,15,20,985.51
2019,04,22,15,21,985.51
2019,04,22,15,22,985.57
2019,04,22,15,23,985.57
2019,04,22,15,24,985.42
2019,04,22,15,25,985.54
2019,04,22,15,26,985.44
2019,04,22,15,27,985.54
2019,04,22,15,28,985.54
2019,04,22,15,29,985.51
2019,04,22,15,30,985.51
2019,04,22,15,31,985.47
2019,04,22,15,32,985.44
2019,04,22,15,33,985.44
2019,04,22,15,34,985.51
2019,04,22,15,35,985.54
2019,04,22,15,36,985.54
2019,04,22,15,37,985.47
2019,04,22,15,38,985.47
2019,04,22,15,39,985.57
2019,04,22,15,40,985.61
2019,04,22,15,41,985.51
2019,04,22,15,42,985.54
2019,04,22,15,43,985.57
2019,04,22,15,44,985.61
2019,04,22,15,45,985.57
2019,04,22,15,46,985.61
2019,04,22,15,47,985.71
2019,04,22,15,48,985.61
2019,04,22,15,49,985.57
2019,04,22,15,50,985.47
2019,04,22,15,51,985.54
2019,04,22,15,52,985.54
2019,04,22,15,53,985.54
2019,04,22,15,54,985.51
2019,04,22,15,55,985.44
2019,04,22,15,56,985.44
2019,04,22,15,57,985.47
2019,04,22,15,58,985.47
2019,04,22,15,59,985.41
2019,04,22,16,00,985.37
2019,04,22,16,01,985.47
2019,04,22,16,02,985.44
2019,04,22,16,03,985.47
2019,04,22,16,04,985.54
2019,04,22,16,05,985.44
2019,04,22,16,06,985.28
2019,04,22,16,07,985.30
2019,04,22,16,08,985.34
2019,04,22,16,09,985.37
2019,04,22,16,10,985.34
2019,04,22,16,11,985.34
2019,04,22,16,12,985.30
2019,04,22,16,13,985.27
2019,04,22,16,14,985.27
2019,04,22,16,15,985.30
2019,04,22,16,16,985.24
2019,04,22,16,17,985.24
2019,04,22,16,18,985.30
2019,04,22,16,19,985.27
2019,04,22,16,20,985.20
2019,04,22,16,21,985.30
2019,04,22,16,22,985.24
2019,04,22,16,23,985.27
2019,04,22,16,24,985.34
2019,04,22,16,25,985.30
2019,04,22,16,26,985.30
2019,04,22,16,27,985.27
2019,04,22,16,28,985.24
2019,04,22,16,29,985.27
2019,04,22,16,30,985.24
2019,04,22,16,31,985.27
2019,04,22,16,32,985.30
2019,04,22,16,33,985.27
2019,04,22,16,34,985.27
2019,04,22,16,35,985.24
2019,04,22,16,36,985.34